Location: Lachepaillet
(43.4918°N, 1.4874°W)
Time: 23:24:32
(UTC+00:00)

DELTA 2 R/B (1) - Pass Details

Date: 15 May 2026
Orbit: 787 x 799 km, 39.6° (Epoch: 11 June)

Event Time Altitude Azimuth Distance (km) Brightness Sun altitude
Rises 20:41:35 0° 264° (W) 3,290 7.5 -12.4°
Reaches altitude 10° 20:44:06 10° 261° (W) 2,358 6.6 -12.7°
Maximum altitude 20:49:33 58° 183° (S) 916 3.7 -13.5°
Enters shadow 20:53:40 18° 109° (ESE) 1,878 5.0 -14.0°
